Tracking 28790 objects as of 18-Apr-2024
HD Live streaming from Space Station
objects crossing your sky now

COSMOS 2251 DEB

Track COSMOS 2251 DEB now!
10-day predictions


NORAD ID: 37529
Int'l Code: 1993-036BNJ
Perigee: 597.2 km
Apogee: 646.2 km
Inclination: 74.0 °
Period: 97.0 minutes
Semi major axis: 6992 km
RCS: 0.0074 m2 (small)
Launch date: June 16, 1993
Source: Commonwealth of Independent States (former USSR) (CIS)
Launch site: PLESETSK MISSILE AND SPACE COMPLEX (PKMTR)

Note: This is SATELLITE DEBRIS
Your satellite tracking list
Your tracking list is empty




NASA's NSSDC Master Catalog

Two Line Element Set (TLE):
1 37529U 93036BNJ 24105.49327210  .00039027  00000-0  45379-2 0  9998
2 37529  74.0147  39.5871 0034980 261.2409  98.4807 14.84690203775497
Source of the keplerian elements: AFSPC